Previsão horária em Aberfeldy

Hoje, 18 Janeiro, Segunda-feira

Tempo Temperatura Precipitação Vento Pressão Humidade
00:00 +2°C° 0 mm 2 m/s 731 mmHg 99%
01:00 +1°C° 0.3 mm 3 m/s 731 mmHg 96%
02:00 0°C° 0.3 mm 3 m/s 731 mmHg 94%
03:00 -1°C° 0.3 mm 4 m/s 731 mmHg 92%
04:00 -1°C° 0 mm 3 m/s 731 mmHg 92%
05:00 -1°C° 0 mm 3 m/s 731 mmHg 92%
06:00 -2°C° 0 mm 3 m/s 730 mmHg 92%
07:00 -1°C° 0.1 mm 2 m/s 730 mmHg 93%
08:00 -1°C° 0.1 mm 2 m/s 730 mmHg 94%
09:00 -1°C° 0.1 mm 2 m/s 730 mmHg 95%
10:00 +1°C° 0.1 mm 2 m/s 730 mmHg 95%
11:00 0°C° 0.1 mm 3 m/s 730 mmHg 95%
12:00 +1°C° 0.1 mm 3 m/s 729 mmHg 95%
13:00 0°C° 0 mm 3 m/s 729 mmHg 94%
14:00 0°C° 0 mm 3 m/s 728 mmHg 93%
15:00 0°C° 0 mm 3 m/s 727 mmHg 92%
16:00 +1°C° 0.2 mm 2 m/s 727 mmHg 94%
17:00 +1°C° 0.2 mm 2 m/s 726 mmHg 96%
18:00 -1°C° 0.2 mm 2 m/s 726 mmHg 98%
19:00 -1°C° 0 mm 2 m/s 725 mmHg 98%
20:00 +1°C° 0 mm 1 m/s 725 mmHg 98%
21:00 +1°C° 0 mm 1 m/s 725 mmHg 98%
22:00 +1°C° 0 mm 1 m/s 724 mmHg 98%
23:00 +1°C° 0 mm 1 m/s 724 mmHg 98%

Amanhã, 19 Janeiro, Terça-feira

Tempo Temperatura Precipitação Vento Pressão Humidade
00:00 +1°C° 0 mm 1 m/s 723 mmHg 98%
01:00 +1°C° 0 mm 1 m/s 723 mmHg 98%
02:00 +1°C° 0 mm 1 m/s 722 mmHg 97%
03:00 +1°C° 0 mm 1 m/s 721 mmHg 97%
04:00 0°C° 0 mm 1 m/s 721 mmHg 97%
05:00 0°C° 0 mm 1 m/s 720 mmHg 96%
06:00 0°C° 0 mm 1 m/s 720 mmHg 96%
07:00 -1°C° 0 mm 1 m/s 720 mmHg 95%
08:00 -1°C° 0 mm 1 m/s 719 mmHg 95%
09:00 -1°C° 0 mm 1 m/s 719 mmHg 95%
10:00 0°C° 0 mm 1 m/s 719 mmHg 94%
11:00 0°C° 0 mm 1 m/s 719 mmHg 93%
12:00 +1°C° 0 mm 1 m/s 718 mmHg 92%
13:00 0°C° 0 mm 0 m/s 718 mmHg 92%
14:00 0°C° 0 mm 0 m/s 717 mmHg 92%
15:00 -1°C° 0 mm 0 m/s 716 mmHg 92%
16:00 -1°C° 0 mm 0 m/s 716 mmHg 91%
17:00 -1°C° 0 mm 0 m/s 715 mmHg 90%
18:00 -2°C° 0 mm 0 m/s 715 mmHg 89%
19:00 -1°C° 0 mm 1 m/s 714 mmHg 88%
20:00 -1°C° 0 mm 1 m/s 714 mmHg 87%
21:00 -2°C° 0 mm 1 m/s 714 mmHg 86%
22:00 -2°C° 0 mm 1 m/s 713 mmHg 85%
23:00 -2°C° 0 mm 1 m/s 713 mmHg 85%

Depois de amanhã, 20 Janeiro, Quarta-feira

Tempo Temperatura Precipitação Vento Pressão Humidade
00:00 -2°C° 0 mm 1 m/s 712 mmHg 84%
01:00 -2°C° 0 mm 1 m/s 712 mmHg 84%
02:00 -2°C° 0 mm 1 m/s 712 mmHg 84%
03:00 -2°C° 0 mm 1 m/s 712 mmHg 84%
04:00 -2°C° 0 mm 1 m/s 712 mmHg 84%
05:00 -2°C° 0 mm 1 m/s 711 mmHg 84%
06:00 -2°C° 0 mm 1 m/s 711 mmHg 84%
07:00 -2°C° 0 mm 1 m/s 711 mmHg 83%
08:00 -2°C° 0 mm 1 m/s 711 mmHg 83%
09:00 -2°C° 0 mm 1 m/s 711 mmHg 83%
10:00 -2°C° 0 mm 1 m/s 711 mmHg 83%
11:00 -1°C° 0 mm 1 m/s 711 mmHg 83%
12:00 0°C° 0 mm 1 m/s 710 mmHg 83%
13:00 0°C° 0 mm 1 m/s 710 mmHg 84%
14:00 0°C° 0 mm 1 m/s 709 mmHg 86%
15:00 0°C° 0 mm 1 m/s 708 mmHg 88%
16:00 0°C° 0 mm 1 m/s 707 mmHg 89%
17:00 -2°C° 0 mm 2 m/s 707 mmHg 90%
18:00 -2°C° 0 mm 2 m/s 706 mmHg 92%
19:00 -2°C° 0.3 mm 2 m/s 705 mmHg 93%
20:00 -2°C° 0.3 mm 2 m/s 704 mmHg 95%
21:00 -1°C° 0.3 mm 2 m/s 703 mmHg 97%
22:00 -1°C° 1.4 mm 2 m/s 702 mmHg 97%
23:00 -1°C° 1.4 mm 2 m/s 701 mmHg 98%

21 Janeiro, Quinta-feira

Tempo Temperatura Precipitação Vento Pressão Humidade
00:00 +1°C° 1.4 mm 2 m/s 699 mmHg 98%
01:00 0°C° 0.9 mm 3 m/s 698 mmHg 98%
02:00 +1°C° 0.9 mm 3 m/s 697 mmHg 98%
03:00 +1°C° 0.9 mm 3 m/s 696 mmHg 98%
04:00 +1°C° 1.2 mm 3 m/s 695 mmHg 98%
05:00 +1°C° 1.2 mm 3 m/s 694 mmHg 98%
06:00 +1°C° 1.2 mm 3 m/s 693 mmHg 99%
07:00 +1°C° 2 mm 3 m/s 692 mmHg 99%
08:00 +1°C° 2 mm 3 m/s 692 mmHg 99%
09:00 +2°C° 2 mm 2 m/s 691 mmHg 99%
10:00 +2°C° 1.4 mm 2 m/s 691 mmHg 99%
11:00 +2°C° 1.4 mm 2 m/s 692 mmHg 99%
12:00 +2°C° 1.4 mm 2 m/s 692 mmHg 99%
13:00 +2°C° 0.5 mm 2 m/s 692 mmHg 99%
14:00 +2°C° 0.5 mm 2 m/s 692 mmHg 99%
15:00 +2°C° 0.5 mm 2 m/s 692 mmHg 99%
16:00 +2°C° 0.3 mm 2 m/s 693 mmHg 99%
17:00 +2°C° 0.3 mm 2 m/s 694 mmHg 98%
18:00 +2°C° 0.3 mm 2 m/s 694 mmHg 98%
19:00 +2°C° 0.4 mm 2 m/s 695 mmHg 98%
20:00 +1°C° 0.4 mm 3 m/s 696 mmHg 97%
21:00 0°C° 0.4 mm 3 m/s 697 mmHg 97%
22:00 0°C° 0.3 mm 3 m/s 698 mmHg 97%
23:00 -1°C° 0.3 mm 4 m/s 698 mmHg 96%

22 Janeiro, Sexta-feira

Tempo Temperatura Precipitação Vento Pressão Humidade
00:00 -1°C° 0.3 mm 5 m/s 699 mmHg 95%
01:00 -1°C° 0.4 mm 5 m/s 700 mmHg 95%
02:00 -1°C° 0.4 mm 5 m/s 701 mmHg 95%
03:00 -1°C° 0.4 mm 5 m/s 701 mmHg 95%
04:00 -1°C° 0.6 mm 5 m/s 702 mmHg 95%
05:00 -1°C° 0.6 mm 5 m/s 703 mmHg 94%
06:00 -3°C° 0.6 mm 6 m/s 704 mmHg 93%
07:00 -3°C° 0.3 mm 6 m/s 704 mmHg 91%
08:00 -3°C° 0.3 mm 6 m/s 705 mmHg 89%
09:00 -4°C° 0.3 mm 7 m/s 706 mmHg 88%
10:00 -4°C° 0.1 mm 7 m/s 706 mmHg 86%
11:00 -3°C° 0.1 mm 7 m/s 707 mmHg 84%
12:00 -4°C° 0.1 mm 8 m/s 708 mmHg 82%
13:00 -4°C° 0 mm 7 m/s 708 mmHg 81%
14:00 -4°C° 0 mm 7 m/s 709 mmHg 81%
15:00 -4°C° 0 mm 7 m/s 709 mmHg 80%
16:00 -4°C° 0 mm 7 m/s 710 mmHg 81%
17:00 -5°C° 0 mm 6 m/s 710 mmHg 82%
18:00 -5°C° 0 mm 6 m/s 711 mmHg 83%
19:00 -5°C° 0 mm 5 m/s 711 mmHg 83%
20:00 -5°C° 0 mm 4 m/s 712 mmHg 83%
21:00 -5°C° 0 mm 4 m/s 712 mmHg 83%
22:00 -5°C° 0 mm 3 m/s 713 mmHg 83%
23:00 -5°C° 0 mm 3 m/s 713 mmHg 84%

23 Janeiro, Sábado

Tempo Temperatura Precipitação Vento Pressão Humidade
00:00 -6°C° 0 mm 3 m/s 713 mmHg 85%
01:00 -6°C° 0 mm 3 m/s 714 mmHg 85%
02:00 -6°C° 0 mm 2 m/s 714 mmHg 85%
03:00 -6°C° 0 mm 2 m/s 714 mmHg 85%
04:00 -6°C° 0 mm 2 m/s 714 mmHg 85%
05:00 -7°C° 0 mm 2 m/s 715 mmHg 85%
06:00 -6°C° 0 mm 1 m/s 715 mmHg 84%
07:00 -6°C° 0 mm 1 m/s 715 mmHg 85%
08:00 -6°C° 0 mm 1 m/s 715 mmHg 85%
09:00 -6°C° 0 mm 1 m/s 716 mmHg 85%
10:00 -4°C° 0 mm 1 m/s 716 mmHg 85%
11:00 -3°C° 0 mm 1 m/s 716 mmHg 85%
12:00 -2°C° 0 mm 1 m/s 716 mmHg 85%
13:00 -2°C° 0 mm 1 m/s 716 mmHg 86%
14:00 -2°C° 0 mm 1 m/s 716 mmHg 88%
15:00 -2°C° 0 mm 1 m/s 716 mmHg 89%
16:00 -2°C° 0 mm 1 m/s 716 mmHg 90%
17:00 -3°C° 0 mm 1 m/s 715 mmHg 91%
18:00 -4°C° 0 mm 1 m/s 715 mmHg 93%
19:00 -4°C° 0.1 mm 1 m/s 715 mmHg 94%
20:00 -3°C° 0.1 mm 1 m/s 715 mmHg 95%
21:00 -3°C° 0.1 mm 1 m/s 715 mmHg 96%
22:00 -3°C° 0.5 mm 1 m/s 715 mmHg 97%
23:00 -3°C° 0.5 mm 1 m/s 715 mmHg 97%
Mostrar mais